Powrót do katalogu

ONEWEB-0525

AktywnyŁącznośćPO
NORAD 54143·PAYLOAD·🇬🇧 United Kingdom

Wystrzelony Oct 22, 2022 z Satish Dhawan Space Centre

Loading…

Następne Przeloty (najbliższe 24 godziny)

TLE

ŚwieżeSource: CelesTrak SupGP

Epoka: Sep 14, 2026, 15:34 UTC

1 54143C 22138AG  26257.64913611 -.00000538  00000+0 -13466-2 0  2572
2 54143  87.9110 287.1479 0001974  82.9366  30.6696 13.19724324    15

Śledź ONEWEB-0525 w czasie rzeczywistym z AllMySat

Download on the App Store